Weather History for Milan, Italy

Change the Weather History Date:

Thursday, November 1, 2012

  Actual Average Record
Temperature  
Mean Temperature 50 °F -  
Max Temperature 57 °F 52 °F 66 °F (2006)
Min Temperature 44 °F 33 °F 35 °F (1996)
Degree Days  
Heating Degree Days 14    
Moisture  
Dew Point 45 °F    
Average Humidity 87    
Maximum Humidity 100    
Minimum Humidity 59    
Precipitation  
Precipitation 0.00 in 0.14 in - ()
Sea Level Pressure  
Sea Level Pressure 29.40 in    
Wind  
Wind Speed 3 mph ()    
Max Wind Speed 8 mph    
Max Gust Speed -    
Visibility 5.8 miles    
Events Fog , Rain    
Averages and records for this station are not official NWS values.
T = Trace of Precipitation, MM = Missing Value Source: Averaged Metar Reports

Daily Weather History Graph

Daily Weather History Graph

Search for Another Location

Airport:

Trip Planner

Search our weather history database for the weather conditions in past years. The results will help you decide how hot, cold, wet, or windy it might be!

Date:

Astronomy

Nov. 01, 2012 Rise Set
Actual Time 7:05 AM CET 5:11 PM CET
Civil Twilight 6:34 AM CET 5:42 PM CET
Nautical Twilight 5:59 AM CET 6:17 PM CET
Astronomical Twilight 5:24 AM CET 6:52 PM CET
Moon 6:49 PM CET (11/1) 9:30 AM CET (11/1)
Length of Visible Light 11h 08m
Length of Day
10h 06m
Waning Gibbous, 94% of the Moon is Illuminated
Nov 1
Waning Gibbous
Nov 7
Last Quarter
Nov 13
New
Nov 20
First Quarter
Nov 28
Full

Hourly Weather History & Observations

Time (CET) Temp. Windchill Dew Point Humidity Pressure Visibility Wind Dir Wind Speed Gust Speed Precip Events Conditions
12:20 AM 46.4 °F 42.9 °F 44.6 °F 93% 29.33 in 6.2 mi North 6.9 mph - N/A Rain Rain
12:50 AM 46.4 °F 42.4 °F 44.6 °F 93% 29.33 in 6.2 mi NNW 8.1 mph - N/A Rain Rain
1:20 AM 46.4 °F 42.9 °F 44.6 °F 93% 29.30 in 6.2 mi NNW 6.9 mph - N/A Rain Rain
1:50 AM 46.4 °F 44.3 °F 44.6 °F 93% 29.30 in 6.2 mi NNW 4.6 mph - N/A Rain Rain
2:20 AM 46.4 °F 43.5 °F 44.6 °F 93% 29.30 in 6.2 mi NW 5.8 mph - N/A Rain Rain
2:50 AM 44.6 °F - 44.6 °F 100% 29.30 in 6.2 mi Variable 2.3 mph - N/A Rain Light Rain
3:20 AM 44.6 °F - 44.6 °F 100% 29.27 in 6.2 mi Variable 2.3 mph - N/A Rain Light Rain
3:50 AM 44.6 °F - 44.6 °F 100% 29.27 in 6.2 mi NE 2.3 mph - N/A Rain Light Rain
4:20 AM 44.6 °F - 44.6 °F 100% 29.27 in 6.2 mi Variable 1.2 mph - N/A Rain Light Rain
4:50 AM 44.6 °F 43.1 °F 44.6 °F 100% 29.27 in 6.2 mi WSW 3.5 mph - N/A   Light Drizzle
5:20 AM 44.6 °F 42.2 °F 44.6 °F 100% 29.30 in 6.2 mi WSW 4.6 mph - N/A Fog Light Drizzle
5:50 AM 44.6 °F 43.1 °F 44.6 °F 100% 29.30 in 6.2 mi SW 3.5 mph - N/A Fog , Rain Light Rain
6:20 AM 44.6 °F - 44.6 °F 100% 29.30 in 5.0 mi Variable 1.2 mph - N/A Fog Mostly Cloudy
6:50 AM 44.6 °F 42.2 °F 44.6 °F 100% 29.30 in 0.6 mi WSW 4.6 mph - N/A Fog Patches of Fog
7:20 AM 44.6 °F 43.1 °F 44.6 °F 100% 29.33 in 0.6 mi West 3.5 mph - N/A Fog Patches of Fog
7:50 AM 44.6 °F - 44.6 °F 100% 29.33 in 0.7 mi Variable 2.3 mph - N/A Fog Patches of Fog
8:20 AM 46.4 °F - 46.4 °F 100% 29.33 in 3.1 mi West 2.3 mph - N/A   Mostly Cloudy
8:50 AM 48.2 °F - 46.4 °F 93% 29.36 in 5.6 mi North 3.5 mph - N/A   Mostly Cloudy
9:20 AM 50.0 °F - 46.4 °F 87% 29.36 in 6.2 mi Variable 2.3 mph - N/A   Scattered Clouds
9:50 AM 50.0 °F - 46.4 °F 87% 29.36 in 6.2 mi Variable 1.2 mph - N/A   Scattered Clouds
10:20 AM 51.8 °F - 46.4 °F 82% 29.39 in 6.2 mi Calm Calm - N/A   Scattered Clouds
10:50 AM 50.0 °F - 46.4 °F 87% 29.39 in 6.2 mi WSW 2.3 mph - N/A   Scattered Clouds
11:20 AM 53.6 °F - 48.2 °F 82% 29.39 in 6.2 mi Calm Calm - N/A   Scattered Clouds
11:50 AM 51.8 °F - 46.4 °F 82% 29.39 in 6.2 mi Variable 2.3 mph - N/A   Scattered Clouds
12:20 PM 55.4 °F - 46.4 °F 72% 29.39 in 6.2 mi Variable 1.2 mph - N/A   Partly Cloudy
12:50 PM 55.4 °F - 46.4 °F 72% 29.39 in 6.2 mi Variable 2.3 mph - N/A   Partly Cloudy
1:20 PM 57.2 °F - 44.6 °F 63% 29.39 in 6.2 mi Variable 2.3 mph - N/A   Partly Cloudy
1:50 PM 57.2 °F - 44.6 °F 63% 29.39 in 6.2 mi Variable 2.3 mph - N/A   Partly Cloudy
2:20 PM 57.2 °F - 42.8 °F 59% 29.39 in 6.2 mi Variable 2.3 mph - N/A   Partly Cloudy
2:50 PM 57.2 °F - 44.6 °F 63% 29.42 in 6.2 mi Variable 2.3 mph - N/A   Partly Cloudy
3:20 PM 57.2 °F - 44.6 °F 63% 29.42 in 6.2 mi Variable 2.3 mph - N/A   Partly Cloudy
3:50 PM 57.2 °F - 44.6 °F 63% 29.42 in 6.2 mi Variable 2.3 mph - N/A   Partly Cloudy
4:20 PM 57.2 °F - 42.8 °F 59% 29.42 in 6.2 mi Variable 1.2 mph - N/A   Partly Cloudy
4:50 PM 55.4 °F - 42.8 °F 63% 29.44 in 6.2 mi Variable 1.2 mph - N/A   Partly Cloudy
5:20 PM 51.8 °F - 44.6 °F 76% 29.44 in 6.2 mi Variable 1.2 mph - N/A   Scattered Clouds
5:50 PM 51.8 °F - 44.6 °F 76% 29.47 in 6.2 mi Variable 1.2 mph - N/A   Scattered Clouds
6:20 PM 51.8 °F - 44.6 °F 76% 29.47 in 6.2 mi Calm Calm - N/A   Scattered Clouds
6:50 PM 48.2 °F - 44.6 °F 87% 29.47 in 6.2 mi Calm Calm - N/A   Scattered Clouds
7:20 PM 50.0 °F - 44.6 °F 82% 29.50 in 6.2 mi North 4.6 mph - N/A   Scattered Clouds
7:50 PM 46.4 °F - 44.6 °F 93% 29.50 in 6.2 mi Calm Calm - N/A   Scattered Clouds
8:20 PM 46.4 °F - 46.4 °F 100% 29.50 in 6.2 mi Variable 2.3 mph - N/A   Scattered Clouds
8:50 PM 48.2 °F - 46.4 °F 93% 29.53 in 6.2 mi Calm Calm - N/A   Scattered Clouds
9:20 PM 48.2 °F - 46.4 °F 93% 29.53 in 6.2 mi Calm Calm - N/A   Mostly Cloudy
9:50 PM 50.0 °F - 46.4 °F 87% 29.53 in 6.2 mi Variable 1.2 mph - N/A   Mostly Cloudy
10:20 PM 48.2 °F - 46.4 °F 93% 29.56 in 6.2 mi North 2.3 mph - N/A   Mostly Cloudy
10:50 PM 48.2 °F - 46.4 °F 93% 29.56 in 6.2 mi Variable 1.2 mph - N/A   Mostly Cloudy
11:20 PM 48.2 °F - 48.2 °F 100% 29.56 in 6.2 mi North 2.3 mph - N/A   Mostly Cloudy
11:50 PM 48.2 °F - 48.2 °F 100% 29.56 in 6.2 mi Calm Calm - N/A   Mostly Cloudy